W1CLK Weather Reports


time (UTC)temp
C
wind
direction
speed
KPH
gust
KPH
rain 1hr
cm
rain 24hr
cm
rain mn
cm
humidity
%
barometer
mb
20260505124844 18 240 3.2 4.8 0.00 0.00 0.00 63 1012.0
20260505124344 17 137 3.2 9.7 0.00 0.00 0.00 64 1012.0
20260505123844 17 258 6.4 12.9 0.00 0.00 0.00 64 1012.0
20260505123345 17 99 3.2 6.4 0.00 0.00 0.00 63 1012.0
20260505122844 17 277 6.4 16.1 0.00 0.00 0.00 65 1012.0
20260505122344 17 271 6.4 12.9 0.00 0.00 0.00 65 1012.0
20260505121844 16 270 6.4 17.7 0.00 0.00 0.00 66 1012.0
20260505121344 16 258 8.0 12.9 0.00 0.00 0.00 66 1012.0
20260505120844 16 270 8.0 17.7 0.00 0.00 0.00 67 1012.0
20260505120345 16 273 12.9 17.7 0.00 0.00 0.00 66 1012.0
20260505115844 16 272 6.4 12.9 0.00 0.00 0.00 68 1012.0
20260505115345 16 280 9.7 16.1 0.00 0.00 0.00 68 1012.0
20260505114844 16 196 3.2 9.7 0.00 0.00 0.00 68 1012.0
20260505114344 16 256 4.8 8.0 0.00 0.00 0.00 69 1012.0
20260505113847 16 271 6.4 12.9 0.00 0.00 0.00 68 1012.0
20260505113344 15 161 4.8 8.0 0.00 0.00 0.00 69 1012.0
20260505112844 15 253 4.8 9.7 0.00 0.00 0.00 69 1012.0
20260505112344 15 271 6.4 12.9 0.00 0.00 0.00 69 1012.0
20260505111844 15 268 9.7 20.9 0.00 0.00 0.00 70 1011.0
20260505111344 15 250 4.8 11.3 0.00 0.00 0.00 70 1011.0
20260505110844 15 253 4.8 9.7 0.00 0.00 0.00 71 1011.0
20260505110349 15 261 6.4 9.7 0.00 0.00 0.00 71 1011.0
20260505101844 13 278 1.6 3.2 0.00 0.00 0.00 75 1011.0
20260505101344 13 188 3.2 4.8 0.00 0.00 0.00 75 1011.0
20260505100844 13 148 4.8 8.0 0.00 0.00 0.00 75 1011.0
20260505100344 13 258 3.2 4.8 0.00 0.00 0.00 76 1011.0
20260505095847 13 262 3.2 8.0 0.00 0.00 0.00 75 1011.0
20260505095344 13 265 3.2 6.4 0.00 0.00 0.00 75 1011.0
20260505094845 13 290 6.4 9.7 0.00 0.00 0.00 76 1011.0
20260505094345 13 151 3.2 4.8 0.00 0.00 0.00 78 1011.0
20260505093844 13 169 3.2 4.8 0.00 0.00 0.00 78 1011.0
20260505093344 13 234 1.6 1.6 0.00 0.00 0.00 78 1011.0
20260505092845 13 223 3.2 3.2 0.00 0.00 0.00 79 1011.0
20260505092344 12 101 1.6 3.2 0.00 0.00 0.00 80 1011.0
20260505091844 12 116 0.0 3.2 0.00 0.00 0.00 81 1011.0
20260505091345 12 139 0.0 3.2 0.00 0.00 0.00 82 1011.0
20260505090844 12 175 3.2 3.2 0.00 0.00 0.00 84 1011.0
20260505090344 11 102 0.0 0.0 0.00 0.00 0.00 86 1011.0
20260505085844 11 121 3.2 3.2 0.00 0.00 0.00 87 1011.0
20260505085344 11 100 0.0 0.0 0.00 0.00 0.00 86 1011.0
20260505084845 12 111 0.0 3.2 0.00 0.00 0.00 86 1011.0
20260505084344 12 0 0.0 0.0 0.00 0.00 0.00 85 1011.0
20260505083844 12 158 0.0 0.0 0.00 0.00 0.00 85 1011.0
20260505083344 12 100 0.0 3.2 0.00 0.00 0.00 85 1011.0
20260505082845 12 93 3.2 3.2 0.00 0.00 0.00 85 1011.0
20260505082345 12 107 0.0 1.6 0.00 0.00 0.00 84 1011.0
20260505081845 12 136 0.0 0.0 0.00 0.00 0.00 84 1011.0
20260505081344 12 0 0.0 0.0 0.00 0.00 0.00 83 1011.0
20260505080844 13 0 0.0 0.0 0.00 0.00 0.00 82 1011.0
20260505080345 13 98 0.0 0.0 0.00 0.00 0.00 82 1011.0
20260505075844 13 131 1.6 3.2 0.00 0.00 0.00 81 1011.0
20260505075345 13 0 0.0 0.0 0.00 0.00 0.00 80 1011.0
20260505074845 13 128 1.6 1.6 0.00 0.00 0.00 79 1011.0
20260505074344 13 112 1.6 1.6 0.00 0.00 0.00 78 1010.0
20260505073845 14 148 1.6 3.2 0.00 0.00 0.00 78 1010.0
20260505073345 14 136 1.6 3.2 0.00 0.00 0.00 76 1011.0
20260505072845 15 207 3.2 3.2 0.00 0.00 0.00 75 1011.0
20260505072344 15 204 3.2 4.8 0.00 0.00 0.00 74 1011.0
20260505071844 15 247 4.8 4.8 0.00 0.00 0.00 74 1011.0
20260505071345 15 156 1.6 4.8 0.00 0.00 0.00 75 1011.0
20260505070844 15 257 3.2 4.8 0.00 0.00 0.00 74 1011.0
20260505070344 15 266 1.6 3.2 0.05 0.00 0.00 73 1011.0
20260505065844 15 270 3.2 4.8 0.00 0.00 0.00 72 1011.0
20260505065345 15 273 1.6 3.2 0.00 0.00 0.00 71 1011.0
20260505064844 15 192 3.2 3.2 0.00 0.00 0.00 72 1011.0
20260505064344 15 218 1.6 1.6 0.00 0.00 0.00 71 1011.0
20260505063844 15 251 1.6 3.2 0.00 0.00 0.00 71 1011.0
20260505063344 15 259 3.2 6.4 0.00 0.00 0.00 71 1011.0
20260505062844 15 199 1.6 3.2 0.00 0.00 0.00 71 1011.0
20260505062344 15 152 1.6 3.2 0.00 0.00 0.00 70 1011.0
20260505061845 15 254 1.6 3.2 0.00 0.00 0.00 71 1011.0
20260505061344 15 225 0.0 0.0 0.00 0.00 0.00 71 1011.0
20260505060844 14 249 1.6 4.8 0.00 0.00 0.00 71 1011.0
20260505060344 14 256 4.8 6.4 0.00 0.00 0.00 70 1011.0
20260505055844 14 260 6.4 6.4 0.00 0.00 0.00 70 1011.0
20260505055345 13 207 1.6 3.2 0.00 0.00 0.00 71 1011.0
20260505054844 13 258 1.6 3.2 0.00 0.00 0.00 71 1011.0
20260505054344 13 258 1.6 3.2 0.00 0.00 0.00 71 1011.0
20260505053844 13 60 1.6 1.6 0.00 0.00 0.00 70 1011.0
20260505053344 13 239 0.0 1.6 0.00 0.00 0.00 69 1011.0
20260505052844 13 113 1.6 1.6 0.00 0.00 0.00 69 1011.0
20260505052345 13 156 1.6 1.6 0.00 0.00 0.00 69 1011.0
20260505051844 13 117 1.6 3.2 0.00 0.00 0.00 68 1011.0
20260505051344 13 0 0.0 0.0 0.00 0.00 0.00 67 1011.0
20260505050845 14 212 0.0 0.0 0.00 0.00 0.00 67 1011.0
20260505050345 14 148 1.6 3.2 0.00 0.00 0.00 66 1011.0
20260505041344 15 226 1.6 4.8 0.00 0.00 0.00 62 1011.0
20260505040844 15 127 0.0 3.2 0.00 0.00 0.00 61 1011.0
20260505040345 15 0 0.0 0.0 0.00 0.00 0.00 60 1011.0
20260505035844 15 120 1.6 4.8 0.00 0.00 0.00 59 1011.0
20260505035344 15 238 0.0 3.2 0.00 0.00 0.00 58 1010.0
20260505034844 15 145 4.8 9.7 0.00 0.00 0.00 58 1010.0
20260505034344 15 185 3.2 6.4 0.00 0.00 0.00 58 1010.0
20260505033844 15 104 4.8 8.0 0.00 0.00 0.00 58 1010.0
20260505033344 15 128 1.6 3.2 0.00 0.00 0.00 58 1011.0
20260505032844 15 101 3.2 8.0 0.00 0.00 0.00 58 1011.0
20260505032345 15 131 0.0 3.2 0.00 0.00 0.00 58 1011.0
20260505031844 15 120 0.0 1.6 0.00 0.00 0.00 59 1011.0
20260505031344 15 0 0.0 0.0 0.00 0.00 0.00 58 1011.0
20260505030844 15 204 1.6 4.8 0.00 0.00 0.00 57 1011.0
20260505025933 15 109 1.6 4.8 0.00 0.00 0.00 57 1011.0
20260505025344 15 102 3.2 4.8 0.00 0.00 0.00 57 1011.0
20260505024846 15 126 0.0 3.2 0.00 0.00 0.00 57 1011.0
20260505024344 15 140 0.0 3.2 0.00 0.00 0.00 56 1011.0
20260505023844 15 122 0.0 0.0 0.00 0.00 0.00 56 1011.0
20260505023345 15 73 1.6 3.2 0.00 0.00 0.00 56 1011.0
20260505022844 15 113 3.2 4.8 0.00 0.00 0.00 56 1011.0
20260505022344 15 103 0.0 3.2 0.00 0.00 0.00 57 1011.0
20260505021844 16 112 0.0 3.2 0.00 0.00 0.00 56 1011.0
20260505021344 16 0 0.0 0.0 0.00 0.00 0.00 55 1011.0
20260505020844 16 92 0.0 1.6 0.00 0.00 0.00 56 1011.0
20260505020344 16 147 1.6 3.2 0.00 0.00 0.00 55 1011.0
20260505015844 16 179 0.0 3.2 0.00 0.00 0.00 53 1011.0
20260505015345 16 111 3.2 9.7 0.00 0.00 0.00 53 1011.0
20260505014844 16 107 1.6 4.8 0.00 0.00 0.00 53 1011.0
20260505014344 16 64 6.4 9.7 0.00 0.00 0.00 53 1011.0
20260505013846 16 184 0.0 3.2 0.00 0.00 0.00 53 1011.0
20260505013345 16 79 1.6 6.4 0.00 0.00 0.00 53 1011.0
20260505012844 16 84 1.6 4.8 0.00 0.00 0.00 52 1011.0
20260505012345 16 164 1.6 3.2 0.00 0.00 0.00 52 1011.0
20260505011844 16 48 1.6 6.4 0.00 0.00 0.00 53 1011.0
20260505011344 16 95 3.2 8.0 0.00 0.00 0.00 53 1011.0
20260505010844 16 108 3.2 6.4 0.00 0.00 0.00 54 1010.0
20260505010344 16 97 0.0 3.2 0.00 0.00 0.00 54 1010.0
20260505005844 16 126 1.6 6.4 0.00 0.00 0.00 54 1010.0
20260505005344 16 79 0.0 3.2 0.00 0.00 0.00 53 1010.0
20260505004844 16 82 0.0 0.0 0.00 0.00 0.00 52 1010.0
20260505004344 16 239 0.0 0.0 0.00 0.00 0.00 52 1010.0
20260505003844 17 52 0.0 1.6 0.00 0.00 0.00 51 1010.0
20260505003344 17 141 0.0 3.2 0.00 0.00 0.00 51 1010.0
20260505002844 17 148 0.0 3.2 0.00 0.00 0.00 50 1010.0
20260505002344 17 0 0.0 0.0 0.00 0.00 0.00 50 1010.0
20260505001845 17 150 0.0 0.0 0.00 0.00 0.00 50 1010.0
20260505001344 18 255 0.0 1.6 0.00 0.00 0.00 49 1010.0
20260505000844 18 0 0.0 0.0 0.00 0.00 0.00 48 1010.0
20260505000345 18 105 1.6 3.2 0.00 0.00 0.00 48 1010.0
20260504235844 18 128 3.2 6.4 0.00 0.00 0.00 47 1010.0
20260504235344 18 131 3.2 6.4 0.00 0.00 0.00 47 1010.0
20260504234844 18 247 1.6 4.8 0.00 0.00 0.00 47 1010.0
20260504234345 19 210 0.0 3.2 0.00 0.00 0.00 47 1010.0
20260504233844 19 162 3.2 4.8 0.00 0.00 0.00 46 1010.0
20260504233344 19 280 1.6 3.2 0.00 0.00 0.00 46 1010.0
20260504232844 19 148 3.2 8.0 0.00 0.00 0.00 46 1010.0
20260504232344 19 111 0.0 3.2 0.00 0.00 0.00 45 1010.0
20260504231844 19 266 4.8 9.7 0.00 0.00 0.00 46 1010.0
20260504231344 19 223 4.8 11.3 0.00 0.00 0.00 45 1010.0
20260504230844 20 269 4.8 11.3 0.00 0.00 0.00 45 1010.0
20260504230344 20 139 6.4 11.3 0.00 0.00 0.00 44 1010.0
20260504225845 20 266 8.0 14.5 0.00 0.00 0.00 45 1010.0
20260504225344 20 242 6.4 14.5 0.00 0.00 0.00 44 1010.0
20260504224844 20 213 4.8 9.7 0.00 0.00 0.00 45 1010.0
20260504224344 20 112 3.2 6.4 0.00 0.00 0.00 44 1010.0
20260504223844 20 172 3.2 11.3 0.00 0.00 0.00 43 1010.0
20260504223344 20 192 4.8 8.0 0.00 0.00 0.00 43 1010.0
20260504222844 20 279 3.2 6.4 0.00 0.00 0.00 42 1010.0
20260504222344 21 256 3.2 9.7 0.00 0.00 0.00 43 1010.0
20260504221844 21 226 9.7 24.1 0.00 0.00 0.00 42 1010.0
20260504221344 21 217 4.8 8.0 0.00 0.00 0.00 42 1010.0
20260504220845 21 266 8.0 12.9 0.00 0.00 0.00 42 1010.0
20260504220345 21 211 4.8 8.0 0.00 0.00 0.00 42 1010.0
20260504215844 21 258 8.0 20.9 0.00 0.00 0.00 42 1010.0
20260504215344 21 116 4.8 9.7 0.00 0.00 0.00 41 1010.0
20260504214844 21 274 3.2 8.0 0.00 0.00 0.00 42 1010.0
20260504214345 21 115 6.4 9.7 0.00 0.00 0.00 42 1010.0
20260504213844 21 156 8.0 17.7 0.00 0.00 0.00 41 1010.0
20260504213344 21 150 4.8 11.3 0.00 0.00 0.00 42 1010.0
20260504212845 21 240 4.8 16.1 0.00 0.00 0.00 42 1010.0
20260504212344 21 182 8.0 16.1 0.00 0.00 0.00 41 1010.0
20260504211846 21 215 6.4 9.7 0.00 0.00 0.00 41 1010.0
20260504211344 21 233 4.8 11.3 0.00 0.00 0.00 42 1010.0
20260504210845 21 111 9.7 16.1 0.00 0.00 0.00 41 1010.0
20260504210344 21 111 6.4 9.7 0.00 0.00 0.00 42 1010.0
20260504205844 21 259 3.2 11.3 0.00 0.00 0.00 44 1010.0
20260504205344 21 132 8.0 12.9 0.00 0.00 0.00 41 1010.0
20260504204844 21 118 9.7 12.9 0.00 0.00 0.00 41 1010.0
20260504204344 21 114 3.2 8.0 0.00 0.00 0.00 42 1010.0
20260504203844 21 165 3.2 8.0 0.00 0.00 0.00 41 1010.0
20260504203344 21 180 6.4 12.9 0.00 0.00 0.00 43 1010.0
20260504202844 21 236 9.7 17.7 0.00 0.00 0.00 42 1010.0
20260504202344 21 144 6.4 12.9 0.00 0.00 0.00 43 1010.0
20260504201844 21 206 1.6 6.4 0.00 0.00 0.00 44 1010.0
20260504200907 21 138 4.8 9.7 0.00 0.00 0.00 42 1010.0
20260504200344 21 125 4.8 9.7 0.00 0.00 0.00 42 1011.0
20260504195846 21 271 9.7 19.3 0.00 0.00 0.00 45 1011.0
20260504195344 21 128 4.8 8.0 0.00 0.00 0.00 42 1011.0
20260504194845 21 138 8.0 17.7 0.00 0.00 0.00 42 1011.0
20260504194345 21 238 4.8 9.7 0.00 0.00 0.00 43 1011.0
20260504193844 21 141 6.4 9.7 0.00 0.00 0.00 41 1011.0
20260504193345 21 175 3.2 9.7 0.00 0.00 0.00 42 1011.0
20260504192844 21 109 4.8 14.5 0.00 0.00 0.00 43 1011.0
20260504192345 21 151 3.2 6.4 0.00 0.00 0.00 41 1011.0
20260504191845 21 255 6.4 16.1 0.00 0.00 0.00 45 1011.0
20260504191345 21 259 9.7 19.3 0.00 0.00 0.00 44 1011.0
20260504190844 21 254 6.4 17.7 0.00 0.00 0.00 44 1011.0
20260504190345 21 156 6.4 12.9 0.00 0.00 0.00 43 1011.0
20260504185845 21 156 3.2 6.4 0.00 0.00 0.00 43 1011.0
20260504185344 21 166 6.4 11.3 0.00 0.00 0.00 43 1011.0
20260504184844 21 278 6.4 14.5 0.00 0.00 0.00 43 1011.0
20260504184344 21 295 3.2 6.4 0.00 0.00 0.00 44 1011.0
20260504183844 21 106 6.4 11.3 0.00 0.00 0.00 42 1011.0
20260504183345 21 97 6.4 12.9 0.00 0.00 0.00 41 1011.0
20260504182845 21 278 6.4 12.9 0.00 0.00 0.00 44 1012.0
20260504182344 21 105 6.4 11.3 0.00 0.00 0.00 43 1012.0
20260504181844 20 300 1.6 4.8 0.00 0.00 0.00 44 1012.0
20260504181344 20 245 4.8 9.7 0.00 0.00 0.00 42 1012.0
20260504180844 20 269 4.8 9.7 0.00 0.00 0.00 43 1012.0
20260504180347 20 278 6.4 11.3 0.00 0.00 0.00 44 1012.0
20260504175845 20 288 6.4 14.5 0.00 0.00 0.00 44 1012.0
20260504175345 20 269 11.3 22.5 0.00 0.00 0.00 44 1012.0
20260504174844 20 139 1.6 6.4 0.00 0.00 0.00 43 1012.0
20260504174345 20 259 6.4 12.9 0.00 0.00 0.00 45 1012.0
20260504173847 20 255 4.8 9.7 0.00 0.00 0.00 48 1012.0
20260504173345 20 147 1.6 4.8 0.00 0.00 0.00 42 1012.0
20260504172845 20 278 4.8 11.3 0.00 0.00 0.00 46 1012.0
20260504172345 20 223 9.7 16.1 0.00 0.00 0.00 45 1012.0
20260504171845 19 224 4.8 11.3 0.00 0.00 0.00 46 1013.0
20260504171345 19 269 11.3 19.3 0.00 0.00 0.00 43 1013.0
20260504170845 20 187 6.4 12.9 0.00 0.00 0.00 43 1013.0
20260504170348 19 124 11.3 20.9 0.00 0.00 0.00 44 1012.0
20260504160344 18 263 3.2 6.4 0.00 0.00 0.00 43 1013.0
20260504150845 17 103 6.4 16.1 0.00 0.00 0.00 44 1014.0
20260504150345 17 206 3.2 8.0 0.00 0.00 0.00 46 1014.0
20260504140845 16 271 6.4 12.9 0.00 0.00 0.00 54 1014.0
20260504140345 16 136 6.4 12.9 0.00 0.00 0.00 52 1014.0